Погода в Коровяковке

Россия / Курская область     51°19′57″N   34°22′39″E
темп.,
°C
ветер,
м/с
пор.,
м/с
влажн.,
%
обл.,
%
осадки,
мм/ч
давл.,
гПа
погр.,
м
8 августа, пн
пн800:00+20ссз2253100 0.0 101713
03:00+19св3454100 0.0 101755
06:00+17ссв337773 0.0 101851
09:00+22ссв2359100 0.0 1018276
12:00+26с3349100 0.0 1019682
15:00+27сз234673 0.0 1018876
18:00+26сз3561100 0.0 1018256
21:00+22ссз3471100 0.0 101971
9 августа, вт
вт900:00+19ссз368994 0.0 1019141
03:00+18ссз359489 0.0 101993
06:00+17ссз359545 0.0 1019122
09:00+21ссз347734 0.0 1019352
12:00+26ссз445944 0.0 1019881
15:00+27ссз4455100 0.0 10181294
18:00+25с4561100 0.0 1018852
21:00+19с41085100 0.8 1019266
10 августа, ср
ср1000:00+17ссв31089100 0.1 1019294
03:00+16ссв41091100 0.1 1019305
06:00+17с4990100 0.0 1019317
09:00+17ссв4992100 0.1 1019322
12:00+20ссв597888 0.0 1019537
15:00+24св786080 0.0 1018969
18:00+23св6867100 0.0 1019807
21:00+19св71279100 0.0 1019372
11 августа, чт
чт1100:00+18св51379100 0.0 1019385
03:00+17св61378100 0.0 1019405
06:00+17св61477100 0.0 1020433
09:00+19всв7136688 0.0 1021541
12:00+22всв61155100 0.0 1021685
15:00+26всв794849 0.0 1020989
18:00+25св610515 0.0 1021832
21:00+20св512635 0.0 1022262
12 августа, пт
пт1200:00+18св512624 0.0 1022242
03:00+16св411630 0.0 1023198
06:00+15св411680 0.0 1023190
09:00+21св58520 0.0 1023374
12:00+26всв67440 0.0 1022965
15:00+29всв67410 0.0 10211423
18:00+27всв58480 0.0 1020494
21:00+21св512630 0.0 1021232